Location: Chenereilles
(45.4866°N, 4.0790°E)
Time: 17:54:37
(UTC+00:00)

USA 215 - Pass Details

Date: 12 November 2019
Orbit: 1101 x 1107 km, 123.0° (Epoch: 02 December)

Event Time Altitude Azimuth Distance (km) Brightness Sun altitude
Exits shadow 16:34:15 - 80° (E) 3,581 5.3 -3.6°
Reaches altitude 10° 16:36:00 10° 74° (ENE) 2,961 4.9 -3.9°
Maximum altitude 16:41:48 36° 11° (NNE) 1,689 4.0 -4.8°
Drops below altitude 10° 16:47:36 10° 309° (NW) 2,964 6.0 -5.8°
Sets 16:50:17 0° 301° (WNW) 3,923 6.8 -6.2°
